Location: Alvediston
(51.0078°N, 2.0364°W)
Time: 18:35:39
(UTC+00:00)

Cosmos 1125 Rocket - Pass Details

Date: 27 February 2020
Orbit: 757 x 780 km, 74.0° (Epoch: 27 March)

Event Time Altitude Azimuth Distance (km) Brightness Sun altitude
Rises 19:23:07 0° 338° (NNW) 3,275 7.2 -16.2°
Reaches altitude 10° 19:25:43 10° 348° (NNW) 2,345 6.3 -16.6°
Maximum altitude 19:30:36 35° 54° (NE) 1,244 4.2 -17.4°
Enters shadow 19:32:02 30° 86° (E) 1,372 4.2 -17.6°
